Regional Weather Roundup
Issued by NWS

Home | Current Version | Previous Version | Text Only | Print | Product List | Glossary On
Versions: 1 2 3 4 5 6 7 8 9 10 11 12 13 14 15 16 17 18 19 20 21 22 23 24 25 26 27 28 29 30 31 32 33 34 35 36 37 38 39 40 41 42 43 44 45 46 47 48 49 50
151
ASUS44 KLIX 251710
RWRLA
LOUISIANA WEATHER ROUNDUP
NATIONAL WEATHER SERVICE NEW ORLEANS LA
1100 AM CST SUN JAN 25 2015

NOTE: "FAIR" INDICATES FEW OR NO CLOUDS BELOW 12,000 FEET WITH NO
      SIGNIFICANT WEATHER AND/OR OBSTRUCTIONS TO VISIBILITY.
      SKY/WX - SKY CONDITION AND SIGNIFICANT WEATHER.
      TMP - AIR TEMPERATURE.    DP   - DEWPOINT TEMPERATURE.
      RH  - RELATIVE HUMIDITY.  PRES - PRESSURE.
      HX  - HEAT INDEX.         WCI  - WIND CHILL INDEX.

*  THESE STATIONS ARE NOT NWS OR FAA STATIONS AND ARE NOT UNDER
   NWS QUALITY CONTROL.

LAZ040-048-061>063-065-066-069-251800-
SOUTHEAST LOUISIANA

CITY           SKY/WX    TMP DP  RH WIND       PRES   REMARKS
N.O. AUDUBON     N/A     64  48  55 MISG        N/A
N.O. INTL ARPT SUNNY     62  42  47 W15G22    30.02F
N.O. LAKEFRONT SUNNY     60  43  53 W15       30.01F
N.O. DOWNTOWN* FAIR      59  41  51 SW10G18   30.02F
SLIDELL        SUNNY     58  40  51 SW8       30.01F
BATON ROUGE    SUNNY     61  39  44 SW14      29.99F
BOOTHVILLE     SUNNY     60  50  69 SW12      30.04F
BELLE CHASSE   MOSUNNY   60  43  53 W12G22    30.01F
BOGALUSA*        N/A     59  42  52 SW8G18    30.00F
GALLIANO*      SUNNY     63  49  61 MISG      30.03F
NEW ROADS*     FAIR      60  41  49 SW12      29.98F
GONZALES*      FAIR      61  39  43 SW13      30.00F
HAMMOND*       SUNNY     61  37  41 W10G18    30.00F
HOUMA*         SUNNY     63  45  51 SW17      30.03F
PORT FOURCHON* SUNNY     59  48  67 W13       30.07F

$$

LAZ041-044-053-054-251800-
SOUTHWEST LOUISIANA

CITY           SKY/WX    TMP DP  RH WIND       PRES   REMARKS
LAKE CHARLES   SUNNY     60  44  55 SW10G20   30.00F
LAFAYETTE      SUNNY     61  42  49 SW12G21   30.01S
PATTERSON      SUNNY     63  43  48 W18       30.03F
SALT POINT       N/A     57  50  77 VRB7      30.02F
NEW IBERIA     SUNNY     62  41  46 W14       30.02S
CHENAULT AIRPK SUNNY     61  43  51 SW12      30.00F

$$

LAZ027-028-251800-
CENTRAL LOUISIANA

CITY           SKY/WX    TMP DP  RH WIND       PRES   REMARKS
FORT POLK      SUNNY     58  42  55 W9        29.96F
ALEXANDRIA INT SUNNY     60  43  53 SW10      29.92F
ALEXANDRIA     SUNNY     61  40  45 SW12      29.93F

$$

LAZ001-002-251800-
NORTHWEST LOUISIANA

CITY           SKY/WX    TMP DP  RH WIND       PRES   REMARKS
SHREVEPORT     MOSUNNY   61  39  44 NW18G25   29.92S
BARKSDALE AFB  SUNNY     59  39  46 NW16      29.91F
DTN SHREVEPORT SUNNY     58  37  45 NW15G23   29.91F

$$

LAZ014-016-251800-
NORTHEAST LOUISIANA

CITY           SKY/WX    TMP DP  RH WIND       PRES   REMARKS
MONROE         SUNNY     58  41  53 W15       29.87S
TALLULAH       SUNNY     58  39  49 SW10G18   29.87F

$$




USA.gov is the U.S. government's official web portal to all federal, state and local government web resources and services.